Weather reports worldwide

Advertisment
Jativa, Spain (8290): temperature & dewpoint: 19.03.2019 18:00:00 - 25.03.2019 18:00:00 (CET)Jativa, Spain (8290): wind speed & gusts: 19.03.2019 18:00:00 - 25.03.2019 18:00:00 (CET)Jativa, Spain (8290): wind direction: 19.03.2019 18:00:00 - 25.03.2019 18:00:00 (CET)Jativa, Spain (8290): reduced air pressure: 19.03.2019 18:00:00 - 25.03.2019 18:00:00 (CET)Jativa, Spain (8290): visibility: 19.03.2019 18:00:00 - 25.03.2019 18:00:00 (CET)Jativa, Spain (8290): sunshine duration: 19.03.2019 18:00:00 - 25.03.2019 18:00:00 (CET)Jativa, Spain (8290): precipitation: 19.03.2019 18:00:00 - 25.03.2019 18:00:00 (CET)
Date & Time tt [°C] td [°C] ff [km/h] ff [kn] fx [km/h] fx [kn] dd ppp [hPa] vv [km] sd [min] rr [mm]
25.03.2019 18:00:00 - - - - - - - - - - -
25.03.2019 17:00:00 24,7 -4,8 8 5 22 12 N 1016,1 20 60 0,0
25.03.2019 16:00:00 24,3 -2,2 9 5 34 18 NE 1016,8 20 60 0,0
25.03.2019 15:00:00 24,5 -1,4 9 5 26 14 NE 1017,2 20 60 0,0
25.03.2019 14:00:00 24,1 -2,5 13 7 26 14 N 1018,2 20 60 0,0
25.03.2019 13:00:00 23,3 -1,0 6 4 19 10 N 1019,2 20 60 -
25.03.2019 12:00:00 22,3 -3,3 8 4 16 9 NE 1020,1 3,5 60 0,0
25.03.2019 11:00:00 20,3 -2,7 1 1 6 4 ENE 1020,9 20 60 0,0
25.03.2019 10:00:00 16,7 -0,5 2 1 10 5 ESE 1021,3 19 60 0,0
25.03.2019 09:00:00 11,5 -2,5 7 4 21 11 WSW 1021,3 20 60 0,0
25.03.2019 08:00:00 8,4 -2,5 8 5 19 10 SSW 1021,4 20 33 0,0
25.03.2019 07:00:00 6,2 -1,7 7 4 18 10 WSW 1021,4 20 0 -
25.03.2019 06:00:00 6,3 -1,4 7 4 15 8 WSW 1021,4 20 0 0,0
25.03.2019 05:00:00 7,7 -1,4 6 3 21 11 WSW 1021,3 20 0 0,0
25.03.2019 04:00:00 8,0 -1,2 8 4 16 9 WSW 1021,4 20 0 0,0
25.03.2019 03:00:00 9,4 -1,7 13 7 24 13 WSW 1021,8 20 0 0,0
25.03.2019 02:00:00 8,6 -0,7 10 5 19 10 WSW 1022,0 20 0 0,0
25.03.2019 01:00:00 9,9 -1,0 10 5 19 11 WSW 1022,3 20 0 -
25.03.2019 00:00:00 10,3 -0,5 9 5 16 9 WSW 1022,6 20 0 0,0
24.03.2019 23:00:00 11,4 0,0 9 5 15 8 WSW 1022,6 20 0 0,0
24.03.2019 22:00:00 12,2 0,9 8 4 13 7 WSW 1022,3 20 0 0,0
24.03.2019 21:00:00 14,2 1,7 5 3 7 4 NW 1021,8 20 0 0,0
24.03.2019 20:00:00 16,2 0,6 4 2 9 5 NNE 1021,3 20 0 0,0
24.03.2019 19:00:00 19,5 -1,7 6 4 16 8 ESE 1021,1 20 0 -
24.03.2019 18:00:00 21,7 -1,7 9 5 26 14 E 1021,0 20 31 0,0
24.03.2019 17:00:00 21,5 -1,7 14 7 34 18 E 1021,0 20 45 0,0
24.03.2019 16:00:00 23,3 -2,5 19 10 34 19 E 1021,3 20 60 0,0
24.03.2019 15:00:00 23,8 -1,2 16 9 31 17 E 1021,5 20 60 0,0
24.03.2019 14:00:00 23,1 1,9 11 6 25 14 NNE 1022,0 20 60 0,0
24.03.2019 13:00:00 22,6 3,6 8 4 19 10 NNE 1023,0 20 60 -
24.03.2019 12:00:00 21,3 3,4 5 3 13 7 E 1023,9 20 60 0,0
24.03.2019 11:00:00 19,2 5,0 2 1 8 4 N 1024,5 20 60 0,0
24.03.2019 10:00:00 16,3 5,0 4 2 12 7 ESE 1024,7 13 60 0,0
24.03.2019 09:00:00 11,7 3,9 8 4 14 8 WSW 1024,8 20 60 0,0
24.03.2019 08:00:00 8,0 3,0 9 5 14 8 SW 1024,8 18 31 0,0
24.03.2019 07:00:00 6,9 2,7 8 5 21 11 WSW 1024,4 16 0 -
24.03.2019 06:00:00 6,6 2,9 7 4 11 6 WSW 1024,3 14 0 0,0
24.03.2019 05:00:00 7,5 3,0 8 4 16 9 WSW 1024,3 14 0 0,0
24.03.2019 04:00:00 7,7 3,4 6 3 17 9 W 1024,5 13 0 0,0
24.03.2019 03:00:00 8,9 3,6 8 5 19 10 SW 1024,5 14 0 0,0
24.03.2019 02:00:00 9,4 3,8 10 5 18 10 WSW 1024,7 16 0 0,0
24.03.2019 01:00:00 9,6 3,9 11 6 18 10 WSW 1025,0 14 0 -
24.03.2019 00:00:00 9,9 4,3 8 4 11 6 WSW 1025,4 14 0 0,0
23.03.2019 23:00:00 10,9 4,8 7 4 11 6 W 1025,5 13 0 0,0
23.03.2019 22:00:00 12,4 5,3 4 2 9 5 SW 1025,5 15 0 0,0
23.03.2019 21:00:00 13,5 5,6 2 1 11 6 SSE 1025,3 16 0 0,0
23.03.2019 20:00:00 14,7 5,0 3 2 14 7 ENE 1024,5 16 0 0,0
23.03.2019 19:00:00 16,6 4,6 10 6 24 13 NE 1024,1 18 0 -
23.03.2019 18:00:00 18,2 3,9 16 9 26 14 NE 1023,9 20 39 0,0
23.03.2019 17:00:00 19,2 4,1 13 7 23 12 ENE 1023,9 20 52 0,0
23.03.2019 16:00:00 20,1 3,2 14 8 23 13 ENE 1024,2 20 58 0,0
23.03.2019 15:00:00 19,5 3,9 9 5 18 10 NE 1024,6 17 56 0,0
23.03.2019 14:00:00 19,1 4,5 5 3 12 6 SE 1025,1 20 13 0,0
23.03.2019 13:00:00 17,6 5,1 5 3 11 6 E 1026,2 20 16 -
23.03.2019 12:00:00 16,2 5,1 3 2 11 6 NNE 1026,8 15 2 0,0
23.03.2019 11:00:00 15,0 5,1 3 1 9 5 NE 1027,0 16 0 0,0
23.03.2019 10:00:00 13,6 4,1 2 1 9 5 SW 1027,4 16 0 0,0
23.03.2019 09:00:00 11,4 4,1 6 3 14 8 W 1027,3 15 0 0,0
23.03.2019 08:00:00 9,7 3,2 5 3 8 5 SW 1027,3 7 0 0,0
23.03.2019 07:00:00 9,4 2,9 5 3 8 5 SW 1026,9 20 0 -
23.03.2019 06:00:00 9,2 2,5 5 3 8 4 W 1026,7 20 0 0,0
23.03.2019 05:00:00 9,3 2,1 6 3 10 5 W 1026,5 20 0 0,0
23.03.2019 04:00:00 9,5 0,9 7 4 13 7 WSW 1026,6 20 0 0,0
23.03.2019 03:00:00 9,7 0,9 8 5 14 8 SW 1026,8 20 0 0,0
23.03.2019 02:00:00 8,7 1,9 10 5 18 10 WSW 1027,0 19 0 0,0
23.03.2019 01:00:00 8,9 2,3 5 3 9 5 WSW 1027,2 20 0 -
23.03.2019 00:00:00 9,1 2,3 6 3 11 6 SW 1027,1 20 0 0,0
22.03.2019 23:00:00 9,9 2,7 7 4 10 5 WSW 1027,4 17 0 0,0
22.03.2019 22:00:00 10,8 2,9 1 1 10 5 W 1027,2 19 0 0,0
22.03.2019 21:00:00 12,3 3,0 3 2 8 5 SSW 1026,8 19 0 0,0
22.03.2019 20:00:00 13,5 2,7 4 2 11 6 E 1026,5 20 0 0,0
22.03.2019 19:00:00 15,5 2,3 8 4 14 7 NNW 1026,1 20 0 -
22.03.2019 18:00:00 17,0 2,3 10 5 26 14 ENE 1025,7 20 41 0,0
22.03.2019 17:00:00 - - - - - - - - - - -
22.03.2019 16:00:00 18,4 2,7 13 7 30 16 NE 1025,8 20 60 0,0
22.03.2019 15:00:00 18,5 2,7 16 9 35 19 NNE 1026,3 20 60 0,0
22.03.2019 14:00:00 18,5 1,5 18 10 35 19 NNE 1026,7 20 39 0,0
22.03.2019 13:00:00 17,6 -0,3 16 9 35 19 NNE 1027,2 20 53 -
22.03.2019 12:00:00 16,7 0,0 13 7 27 15 NNE 1027,9 20 60 0,0
22.03.2019 11:00:00 15,1 0,4 4 2 11 6 NE 1028,0 20 53 0,0
22.03.2019 10:00:00 10,7 3,9 4 2 13 7 WSW 1028,4 9 3 0,0
22.03.2019 09:00:00 7,9 3,2 6 3 13 7 WSW 1028,1 17 0 0,0
22.03.2019 08:00:00 6,7 3,2 6 4 13 7 WSW 1027,9 15 0 0,0
22.03.2019 07:00:00 5,8 3,2 7 4 11 6 SW 1027,5 14 0 -
22.03.2019 06:00:00 4,6 2,9 5 3 10 5 W 1027,3 15 0 0,0
22.03.2019 05:00:00 4,5 2,3 8 4 11 6 WSW 1027,4 15 0 0,0
22.03.2019 04:00:00 5,1 2,3 7 4 13 7 WSW 1027,4 16 0 0,0
22.03.2019 03:00:00 5,1 2,3 8 4 11 6 WSW 1027,7 15 0 0,0
22.03.2019 02:00:00 5,9 2,9 8 4 11 6 WSW 1027,9 18 0 0,0
22.03.2019 01:00:00 6,4 2,9 3 2 11 6 SSW 1028,1 17 0 -
22.03.2019 00:00:00 6,8 2,9 4 2 8 4 WSW 1028,3 16 0 0,0
21.03.2019 23:00:00 8,7 3,4 7 4 10 6 SW 1028,4 17 0 0,0
21.03.2019 22:00:00 9,4 3,2 2 1 5 3 WSW 1028,2 17 0 0,0
21.03.2019 21:00:00 10,1 3,4 1 1 9 5 SSE 1028,0 11 0 0,0
21.03.2019 20:00:00 10,9 3,0 8 4 20 11 NE 1027,5 20 0 0,0
21.03.2019 19:00:00 13,0 1,1 11 6 24 13 ENE 1026,9 20 0 -
21.03.2019 18:00:00 14,4 0,2 17 9 32 18 NE 1026,4 20 40 0,0
21.03.2019 17:00:00 15,7 -1,4 16 9 32 17 ENE 1026,3 20 60 0,0
21.03.2019 16:00:00 16,0 -0,7 19 11 39 21 ENE 1026,5 20 55 0,0
21.03.2019 15:00:00 15,7 1,5 21 11 40 21 ENE 1026,8 20 36 0,0
21.03.2019 14:00:00 16,3 1,5 20 11 39 21 ENE 1027,3 20 51 0,0
21.03.2019 13:00:00 16,5 -0,3 21 11 38 20 NE 1027,7 20 60 -
21.03.2019 12:00:00 15,5 -0,7 19 11 35 19 NNE 1028,1 20 58 0,0
21.03.2019 11:00:00 14,4 0,2 13 7 22 12 NE 1028,4 20 60 0,0
21.03.2019 10:00:00 13,2 1,9 3 2 13 7 S 1028,4 20 60 0,0
21.03.2019 09:00:00 8,4 3,2 9 5 15 8 WSW 1028,6 20 60 0,0
21.03.2019 08:00:00 4,5 2,9 6 4 10 6 W 1028,2 18 35 0,0
21.03.2019 07:00:00 3,1 1,5 5 3 10 6 WSW 1027,8 18 0 -
21.03.2019 06:00:00 3,4 1,7 1 1 6 3 SSW 1027,7 19 0 0,0
21.03.2019 05:00:00 3,9 1,9 3 1 5 3 W 1027,6 20 0 0,0
21.03.2019 04:00:00 4,6 1,9 3 1 12 6 WSW 1027,8 19 0 0,0
21.03.2019 03:00:00 5,7 2,3 5 3 11 6 WSW 1028,3 20 0 0,0
21.03.2019 02:00:00 6,7 2,5 7 4 13 7 WSW 1028,8 20 0 0,0
21.03.2019 01:00:00 7,0 2,5 8 5 14 8 WSW 1029,1 20 0 -
21.03.2019 00:00:00 6,7 2,9 6 3 12 7 SW 1029,3 20 0 0,0
20.03.2019 23:00:00 6,9 2,7 7 4 10 5 WSW 1029,4 20 0 0,0
20.03.2019 22:00:00 8,5 3,0 2 1 6 3 WNW 1029,1 20 0 0,0
20.03.2019 21:00:00 8,7 3,0 3 1 11 6 NE 1028,8 20 0 0,0
20.03.2019 20:00:00 10,1 2,7 6 3 13 7 NNE 1027,7 20 0 0,0
20.03.2019 19:00:00 12,6 1,9 10 6 22 12 ENE 1027,2 20 0 -
20.03.2019 18:00:00 14,2 1,5 11 6 23 12 E 1026,3 20 18 0,0
20.03.2019 17:00:00 16,2 2,9 9 5 22 12 ESE 1026,1 20 32 0,0
20.03.2019 16:00:00 16,4 3,0 11 6 32 17 SSE 1026,2 18 48 0,0
20.03.2019 15:00:00 16,2 3,6 9 5 24 13 SE 1026,7 20 43 0,0
20.03.2019 14:00:00 14,4 3,6 11 6 65 35 ENE 1027,4 20 15 0,0
20.03.2019 13:00:00 14,4 3,6 4 2 16 9 NNW 1028,2 20 17 -
20.03.2019 12:00:00 12,3 4,8 6 3 23 13 S 1028,8 20 3 0,0
20.03.2019 11:00:00 13,3 4,1 6 3 17 9 NNE 1028,5 20 40 0,0
20.03.2019 10:00:00 11,7 5,6 3 2 8 4 WNW 1028,2 20 49 0,0
20.03.2019 09:00:00 9,8 6,4 2 1 6 3 W 1028,2 20 1 0,0
20.03.2019 08:00:00 8,7 6,8 0 0 12 6 N 1028,0 20 0 0,0
20.03.2019 07:00:00 8,4 6,7 7 4 12 6 W 1027,4 20 0 -
20.03.2019 06:00:00 8,6 6,7 6 3 21 11 ENE 1027,5 20 0 0,2
20.03.2019 05:00:00 8,9 6,7 4 2 9 5 E 1026,8 20 0 0,0
20.03.2019 04:00:00 9,2 6,2 2 1 16 9 SE 1026,4 20 0 0,0
20.03.2019 03:00:00 10,1 6,1 5 3 9 5 WSW 1027,0 20 0 0,0
20.03.2019 02:00:00 9,8 7,4 7 4 12 6 W 1027,1 20 0 0,0
20.03.2019 01:00:00 9,9 7,6 3 1 7 4 NE 1026,9 20 0 -
20.03.2019 00:00:00 10,0 5,9 4 2 6 3 N 1026,8 20 0 0,0
19.03.2019 23:00:00 10,6 5,3 3 1 4 2 N 1026,4 17 0 0,0
19.03.2019 22:00:00 11,3 4,5 5 3 9 5 NE 1025,8 20 0 0,0
19.03.2019 21:00:00 11,9 4,3 4 2 12 6 ENE 1025,2 20 0 0,0
19.03.2019 20:00:00 12,5 1,5 9 5 19 11 NE 1024,6 20 0 0,0
19.03.2019 19:00:00 13,8 -0,7 14 7 22 12 NE 1023,7 20 0 -
19.03.2019 18:00:00 15,4 -2,2 15 8 28 15 NE 1022,8 20 37 0,0

tt = temperature
td = dewpoint
ff = wind speed
fx = gusts
dd = wind direction
ppp = reduced air pressure
vv = visibility
sd = sunshine duration
rr = precipitation

Next stations